QPF
0.00 0.00 0.00 0.00 0.00 0.00 0.00 0.00 0.00 0.01 0.01 0.00 0.01 0.01 0.01 0.01 0.01 0.01 0.01 0.01 0.01 0.01 0.01 0.01 0.02 0.01 0.01 0.01 0.01 0.01 0.02 0.02 0.02 0.02 0.03 0.04 0.05 0.04 0.04 0.06 0.08 0.07 0.05
0.00 0.00 0.00 0.00 0.00 0.00 0.00 0.00 0.00 0.00 0.00 0.00 0.01 0.02 0.01 0.00 0.00 0.00 0.01 0.01 0.01 0.01 0.02 0.01 0.02 0.01 0.02 0.01 0.01 0.01 0.01 0.02 0.02 0.02 0.03 0.04 0.04 0.04 0.05 0.08 0.09 0.07 0.05
0.00 0.00 0.00 0.00 0.00 0.00 0.00 0.00 0.00 0.00 0.00 0.00 0.00 0.00 0.01 0.01 0.01 0.01 0.02 0.02 0.02 0.02 0.03 0.03 0.02 0.02 0.02 0.01 0.01 0.01 0.01 0.03 0.03 0.04 0.05 0.04 0.04 0.05 0.06 0.08 0.09 0.09 0.08
0.00 0.00 0.00 0.00 0.00 0.00 0.00 0.00 0.00 0.00 0.00 0.00 0.00 0.00 0.00 0.01 0.01 0.01 0.02 0.03 0.02 0.02 0.02 0.02 0.02 0.02 0.02 0.02 0.02 0.02 0.02 0.03 0.03 0.04 0.06 0.05 0.04 0.04 0.06 0.07 0.08 0.09 0.09
0.00 0.00 0.00 0.00 0.00 0.00 0.00 0.00 0.00 0.00 0.00 0.00 0.00 0.00 0.00 0.00 0.00 0.00 0.00 0.01 0.02 0.01 0.01 0.01 0.02 0.02 0.03 0.03 0.02 0.02 0.02 0.02 0.02 0.04 0.05 0.05 0.05 0.04 0.04 0.05 0.07 0.09 0.08
0.00 0.00 0.00 0.00 0.00 0.00 0.00 0.00 0.00 0.00 0.00 0.00 0.00 0.00 0.00 0.00 0.00 0.00 0.01 0.01 0.00 0.01 0.01 0.01 0.01 0.01 0.01 0.01 0.02 0.02 0.02 0.02 0.01 0.02 0.02 0.04 0.05 0.05 0.05 0.05 0.05 0.05 0.05
0.00 0.00 0.00 0.00 0.00 0.00 0.00 0.00 0.00 0.00 0.00 0.00 0.00 0.00 0.00 0.00 0.00 0.00 0.00 0.00 0.00 0.00 0.01 0.01 0.01 0.01 0.00 0.01 0.01 0.01 0.01 0.01 0.01 0.01 0.02 0.02 0.04 0.05 0.05 0.06 0.06 0.06 0.05
0.00 0.00 0.00 0.00 0.00 0.00 0.00 0.00 0.00 0.00 0.00 0.00 0.00 0.00 0.00 0.00 0.00 0.00 0.00 0.00 0.00 0.00 0.00 0.01 0.01 0.01 0.00 0.00 0.01 0.00 0.01 0.01 0.01 0.01 0.01 0.02 0.03 0.04 0.05 0.08 0.11 0.10 0.08
0.00 0.00 0.00 0.00 0.00 0.00 0.00 0.00 0.00 0.00 0.00 0.00 0.00 0.00 0.00 0.00 0.00 0.00 0.00 0.00 0.00 0.00 0.00 0.01 0.02 0.00 0.00 0.01 0.01 0.01 0.01 0.01 0.01 0.01 0.02 0.02 0.02 0.04 0.06 0.08 0.10 0.09 0.09
0.00 0.00 0.00 0.00 0.00 0.00 0.00 0.00 0.00 0.00 0.00 0.00 0.00 0.00 0.00 0.00 0.00 0.01 0.00 0.00 0.00 0.00 0.01 0.01 0.01 0.01 0.01 0.01 0.00 0.01 0.01 0.01 0.01 0.01 0.01 0.01 0.02 0.03 0.05 0.06 0.07 0.08 0.07
0.00 0.00 0.00 0.00 0.00 0.00 0.00 0.00 0.00 0.00 0.00 0.00 0.00 0.00 0.00 0.00 0.00 0.01 0.00 0.00 0.00 0.00 0.00 0.00 0.00 0.00 0.01 0.01 0.01 0.00 0.01 0.02 0.01 0.01 0.01 0.01 0.02 0.02 0.02 0.03 0.03 0.05 0.06
0.00 0.00 0.00 0.00 0.00 0.00 0.00 0.00 0.00 0.00 0.00 0.00 0.00 0.00 0.00 0.00 0.00 0.00 0.00 0.00 0.00 0.00 0.00 0.00 0.00 0.00 0.01 0.01 0.01 0.00 0.01 0.01 0.02 0.02 0.01 0.01 0.02 0.02 0.03 0.03 0.03 0.02 0.02
0.00 0.00 0.00 0.00 0.00 0.00 0.00 0.00 0.00 0.00 0.00 0.00 0.00 0.00 0.00 0.00 0.00 0.00 0.00 0.00 0.00 0.00 0.00 0.00 0.00 0.00 0.00 0.00 0.00 0.00 0.00 0.01 0.02 0.01 0.01 0.01 0.01 0.01 0.01 0.01 0.01 0.01 0.02
0.00 0.00 0.00 0.00 0.00 0.00 0.00 0.00 0.00 0.00 0.00 0.00 0.00 0.00 0.00 0.00 0.00 0.00 0.00 0.00 0.00 0.00 0.00 0.00 0.00 0.00 0.00 0.00 0.00 0.00 0.00 0.00 0.00 0.00 0.01 0.01 0.00 0.00 0.00 0.00 0.00 0.00 0.00
0.00 0.00 0.00 0.00 0.00 0.00 0.00 0.00 0.00 0.00 0.00 0.00 0.00 0.00 0.00 0.00 0.00 0.00 0.00 0.00 0.00 0.00 0.00 0.00 0.00 0.00 0.00 0.00 0.00 0.00 0.00 0.00 0.00 0.00 0.00 0.00 0.00 0.00 0.00 0.00 0.00 0.00 0.00
0.00 0.00 0.00 0.00 0.00 0.00 0.00 0.00 0.00 0.00 0.00 0.00 0.00 0.00 0.00 0.00 0.00 0.00 0.00 0.00 0.00 0.00 0.00 0.00 0.00 0.00 0.00 0.00 0.00 0.00 0.00 0.00 0.00 0.00 0.00 0.00 0.00 0.00 0.00 0.00 0.00 0.00 0.00
0.00 0.00 0.00 0.00 0.00 0.00 0.00 0.00 0.00 0.00 0.00 0.00 0.00 0.00 0.00 0.00 0.00 0.00 0.00 0.00 0.00 0.00 0.00 0.00 0.00 0.00 0.00 0.00 0.00 0.00 0.00 0.00 0.00 0.00 0.00 0.00 0.00 0.00 0.00 0.00 0.00 0.00 0.00
0.00 0.00 0.00 0.00 0.00 0.00 0.00 0.00 0.00 0.00 0.00 0.00 0.00 0.00 0.00 0.00 0.00 0.00 0.00 0.00 0.00 0.00 0.00 0.00 0.00 0.00 0.00 0.00 0.00 0.00 0.00 0.00 0.00 0.00 0.00 0.00 0.00 0.00 0.00 0.00 0.00 0.00 0.00
0.00 0.00 0.00 0.00 0.00 0.00 0.00 0.00 0.00 0.00 0.00 0.00 0.00 0.00 0.00 0.00 0.00 0.00 0.00 0.00 0.00 0.00 0.00 0.00 0.00 0.00 0.00 0.00 0.00 0.00 0.00 0.00 0.00 0.00 0.00 0.00 0.00 0.00 0.00 0.00 0.00 0.00 0.00
0.00 0.00 0.00 0.00 0.00 0.00 0.00 0.00 0.00 0.00 0.01 0.00 0.00 0.00 0.00 0.00 0.00 0.00 0.00 0.00 0.00 0.00 0.00 0.00 0.00 0.00 0.00 0.00 0.00 0.00 0.00 0.00 0.00 0.00 0.00 0.00 0.00 0.00 0.00 0.00 0.00 0.00 0.00
0.00 0.00 0.00 0.00 0.00 0.00 0.00 0.01 0.01 0.01 0.01 0.01 0.01 0.01 0.01 0.01 0.01 0.01 0.00 0.00 0.00 0.00 0.00 0.00 0.00 0.00 0.00 0.00 0.00 0.00 0.00 0.00 0.00 0.00 0.00 0.00 0.00 0.00 0.00 0.00 0.00 0.00 0.00
0.00 0.00 0.00 0.00 0.01 0.01 0.01 0.01 0.01 0.01 0.01 0.01 0.02 0.02 0.02 0.01 0.01 0.01 0.01 0.00 0.00 0.00 0.00 0.00 0.00 0.00 0.00 0.00 0.00 0.00 0.00 0.00 0.00 0.00 0.00 0.00 0.00 0.00 0.00 0.00 0.00 0.00 0.00
0.00 0.00 0.00 0.01 0.01 0.01 0.01 0.01 0.01 0.02 0.02 0.02 0.02 0.02 0.02 0.02 0.02 0.01 0.01 0.01 0.00 0.00 0.00 0.00 0.00 0.00 0.00 0.00 0.00 0.00 0.00 0.00 0.00 0.00 0.00 0.00 0.00 0.00 0.00 0.00 0.00 0.00 0.00
0.01 0.01 0.01 0.01 0.01 0.01 0.01 0.01 0.01 0.01 0.01 0.01 0.02 0.02 0.02 0.02 0.02 0.02 0.02 0.01 0.01 0.01 0.00 0.00 0.00 0.00 0.00 0.00 0.00 0.00 0.00 0.00 0.00 0.00 0.00 0.00 0.00 0.00 0.00 0.00 0.00 0.00 0.00
0.01 0.01 0.02 0.02 0.03 0.02 0.02 0.02 0.02 0.01 0.01 0.01 0.01 0.02 0.02 0.03 0.02 0.02 0.02 0.01 0.01 0.01 0.01 0.01 0.01 0.00 0.00 0.00 0.00 0.00 0.00 0.00 0.00 0.00 0.00 0.00 0.00 0.00 0.00 0.00 0.00 0.00 0.00
0.01 0.01 0.02 0.02 0.03 0.04 0.04 0.04 0.04 0.03 0.03 0.02 0.02 0.02 0.02 0.02 0.02 0.02 0.01 0.01 0.01 0.01 0.01 0.01 0.01 0.01 0.01 0.01 0.01 0.01 0.01 0.01 0.01 0.00 0.00 0.00 0.00 0.00 0.00 0.00 0.00 0.00 0.00
MSLP
1011.27 1011.55 1011.84 1012.11 1012.33 1012.47 1012.54 1012.56 1012.53 1012.48 1012.45 1012.43 1012.44 1012.45 1012.47 1012.48 1012.46 1012.42 1012.36 1012.30 1012.24 1012.22 1012.23 1012.28 1012.37 1012.48 1012.59 1012.69 1012.76 1012.80 1012.79 1012.76 1012.69 1012.60 1012.50 1012.39 1012.28 1012.18 1012.09 1012.02 1011.98 1011.97 1012.01
1010.89 1011.19 1011.49 1011.78 1012.02 1012.19 1012.30 1012.34 1012.35 1012.33 1012.32 1012.33 1012.36 1012.40 1012.45 1012.49 1012.51 1012.51 1012.50 1012.47 1012.44 1012.42 1012.43 1012.46 1012.51 1012.58 1012.67 1012.75 1012.82 1012.88 1012.92 1012.94 1012.94 1012.92 1012.88 1012.82 1012.74 1012.65 1012.56 1012.47 1012.39 1012.34 1012.33
1010.48 1010.79 1011.12 1011.44 1011.71 1011.91 1012.06 1012.14 1012.18 1012.20 1012.22 1012.25 1012.30 1012.36 1012.43 1012.49 1012.55 1012.59 1012.61 1012.61 1012.61 1012.61 1012.61 1012.63 1012.66 1012.70 1012.76 1012.83 1012.90 1012.98 1013.06 1013.13 1013.19 1013.24 1013.27 1013.27 1013.23 1013.17 1013.08 1012.99 1012.89 1012.80 1012.75
1010.00 1010.34 1010.70 1011.04 1011.35 1011.60 1011.79 1011.92 1012.01 1012.07 1012.12 1012.18 1012.24 1012.32 1012.40 1012.48 1012.55 1012.61 1012.66 1012.69 1012.71 1012.72 1012.73 1012.75 1012.77 1012.80 1012.85 1012.91 1012.98 1013.08 1013.18 1013.29 1013.41 1013.52 1013.60 1013.66 1013.68 1013.65 1013.59 1013.50 1013.39 1013.28 1013.18
1009.47 1009.81 1010.19 1010.57 1010.91 1011.21 1011.46 1011.65 1011.80 1011.91 1012.00 1012.09 1012.17 1012.26 1012.34 1012.42 1012.50 1012.56 1012.62 1012.66 1012.70 1012.73 1012.76 1012.79 1012.82 1012.85 1012.90 1012.96 1013.04 1013.14 1013.26 1013.40 1013.55 1013.70 1013.83 1013.94 1014.00 1014.02 1013.99 1013.92 1013.82 1013.70 1013.57
1008.87 1009.21 1009.59 1009.99 1010.37 1010.72 1011.02 1011.28 1011.49 1011.67 1011.82 1011.94 1012.05 1012.14 1012.22 1012.30 1012.36 1012.42 1012.47 1012.52 1012.57 1012.62 1012.67 1012.72 1012.77 1012.83 1012.89 1012.96 1013.04 1013.14 1013.27 1013.41 1013.58 1013.74 1013.90 1014.04 1014.15 1014.21 1014.23 1014.19 1014.12 1014.01 1013.87
1008.22 1008.54 1008.90 1009.30 1009.70 1010.09 1010.45 1010.77 1011.06 1011.31 1011.52 1011.70 1011.84 1011.95 1012.03 1012.09 1012.13 1012.17 1012.21 1012.25 1012.31 1012.38 1012.46 1012.54 1012.63 1012.72 1012.80 1012.89 1012.98 1013.08 1013.20 1013.33 1013.48 1013.65 1013.82 1013.98 1014.12 1014.22 1014.28 1014.29 1014.25 1014.18 1014.06
1007.59 1007.84 1008.16 1008.53 1008.92 1009.33 1009.73 1010.12 1010.48 1010.81 1011.09 1011.33 1011.52 1011.65 1011.74 1011.79 1011.82 1011.84 1011.86 1011.89 1011.95 1012.04 1012.15 1012.27 1012.40 1012.53 1012.65 1012.76 1012.86 1012.96 1013.06 1013.17 1013.31 1013.45 1013.61 1013.78 1013.94 1014.07 1014.18 1014.24 1014.26 1014.22 1014.15
1007.01 1007.17 1007.41 1007.72 1008.07 1008.47 1008.89 1009.32 1009.75 1010.15 1010.51 1010.82 1011.07 1011.24 1011.35 1011.40 1011.43 1011.43 1011.44 1011.47 1011.53 1011.64 1011.78 1011.94 1012.12 1012.30 1012.46 1012.60 1012.71 1012.81 1012.90 1013.00 1013.10 1013.22 1013.36 1013.52 1013.68 1013.85 1013.99 1014.10 1014.18 1014.20 1014.18
1006.54 1006.58 1006.70 1006.91 1007.19 1007.54 1007.95 1008.40 1008.87 1009.34 1009.77 1010.16 1010.47 1010.70 1010.85 1010.93 1010.96 1010.97 1010.98 1011.01 1011.09 1011.22 1011.39 1011.60 1011.82 1012.05 1012.26 1012.43 1012.58 1012.68 1012.77 1012.85 1012.93 1013.02 1013.14 1013.29 1013.46 1013.64 1013.81 1013.97 1014.09 1014.17 1014.20
1006.20 1006.09 1006.07 1006.14 1006.31 1006.58 1006.94 1007.38 1007.86 1008.37 1008.87 1009.32 1009.71 1010.01 1010.22 1010.35 1010.42 1010.46 1010.49 1010.55 1010.65 1010.80 1011.01 1011.26 1011.53 1011.81 1012.06 1012.29 1012.46 1012.60 1012.70 1012.77 1012.84 1012.93 1013.04 1013.17 1013.34 1013.53 1013.72 1013.91 1014.07 1014.20 1014.28
1005.98 1005.71 1005.52 1005.44 1005.46 1005.61 1005.89 1006.27 1006.74 1007.27 1007.81 1008.33 1008.79 1009.17 1009.46 1009.66 1009.80 1009.89 1009.97 1010.06 1010.20 1010.39 1010.64 1010.93 1011.25 1011.57 1011.88 1012.16 1012.38 1012.56 1012.69 1012.79 1012.88 1012.96 1013.07 1013.21 1013.38 1013.57 1013.77 1013.98 1014.17 1014.32 1014.43
1005.87 1005.43 1005.06 1004.79 1004.65 1004.65 1004.81 1005.11 1005.54 1006.05 1006.61 1007.17 1007.70 1008.17 1008.55 1008.85 1009.07 1009.24 1009.39 1009.55 1009.74 1009.97 1010.26 1010.59 1010.96 1011.33 1011.70 1012.03 1012.31 1012.54 1012.73 1012.88 1013.00 1013.12 1013.25 1013.40 1013.58 1013.77 1013.98 1014.19 1014.39 1014.55 1014.67
1005.79 1005.19 1004.64 1004.19 1003.88 1003.72 1003.74 1003.93 1004.27 1004.74 1005.29 1005.89 1006.47 1007.02 1007.50 1007.90 1008.23 1008.51 1008.75 1008.98 1009.24 1009.52 1009.86 1010.23 1010.64 1011.06 1011.48 1011.86 1012.21 1012.52 1012.77 1012.99 1013.18 1013.35 1013.53 1013.71 1013.90 1014.11 1014.32 1014.52 1014.71 1014.87 1014.99
1005.70 1004.95 1004.24 1003.63 1003.14 1002.83 1002.69 1002.75 1003.00 1003.39 1003.92 1004.51 1005.14 1005.75 1006.32 1006.83 1007.28 1007.67 1008.01 1008.34 1008.67 1009.02 1009.41 1009.82 1010.27 1010.73 1011.19 1011.64 1012.05 1012.43 1012.77 1013.08 1013.35 1013.60 1013.84 1014.06 1014.29 1014.51 1014.72 1014.92 1015.10 1015.24 1015.35
1005.53 1004.68 1003.85 1003.09 1002.46 1001.99 1001.72 1001.64 1001.76 1002.07 1002.53 1003.11 1003.75 1004.41 1005.06 1005.68 1006.24 1006.74 1007.21 1007.64 1008.05 1008.47 1008.90 1009.36 1009.83 1010.33 1010.83 1011.33 1011.81 1012.27 1012.69 1013.09 1013.45 1013.79 1014.10 1014.39 1014.65 1014.90 1015.12 1015.32 1015.48 1015.62 1015.72
1005.28 1004.35 1003.44 1002.59 1001.85 1001.25 1000.84 1000.64 1000.64 1000.84 1001.22 1001.75 1002.38 1003.07 1003.78 1004.48 1005.15 1005.77 1006.35 1006.88 1007.38 1007.87 1008.35 1008.84 1009.35 1009.87 1010.40 1010.94 1011.48 1012.00 1012.51 1013.00 1013.45 1013.88 1014.26 1014.62 1014.93 1015.21 1015.45 1015.65 1015.81 1015.94 1016.03
1004.93 1003.99 1003.04 1002.14 1001.32 1000.64 1000.11 999.79 999.67 999.76 1000.04 1000.50 1001.10 1001.79 1002.54 1003.30 1004.06 1004.78 1005.46 1006.09 1006.68 1007.24 1007.78 1008.31 1008.84 1009.39 1009.94 1010.51 1011.09 1011.67 1012.24 1012.80 1013.33 1013.84 1014.30 1014.71 1015.07 1015.39 1015.65 1015.86 1016.03 1016.16 1016.25
1004.52 1003.60 1002.66 1001.75 1000.90 1000.15 999.54 999.11 998.87 998.85 999.03 999.40 999.94 1000.60 1001.36 1002.16 1002.99 1003.80 1004.57 1005.30 1005.97 1006.60 1007.20 1007.77 1008.34 1008.90 1009.48 1010.07 1010.67 1011.29 1011.91 1012.52 1013.12 1013.68 1014.20 1014.66 1015.07 1015.42 1015.71 1015.94 1016.12 1016.26 1016.36
1004.07 1003.21 1002.32 1001.43 1000.57 999.78 999.11 998.59 998.24 998.10 998.16 998.43 998.89 999.51 1000.25 1001.08 1001.95 1002.83 1003.68 1004.50 1005.26 1005.97 1006.63 1007.25 1007.85 1008.44 1009.03 1009.64 1010.27 1010.91 1011.56 1012.20 1012.84 1013.44 1014.00 1014.50 1014.94 1015.31 1015.62 1015.87 1016.07 1016.22 1016.33
1003.60 1002.82 1001.99 1001.15 1000.30 999.50 998.78 998.17 997.73 997.47 997.41 997.57 997.94 998.49 999.20 1000.02 1000.92 1001.85 1002.78 1003.68 1004.53 1005.32 1006.05 1006.73 1007.38 1008.01 1008.63 1009.25 1009.90 1010.55 1011.22 1011.88 1012.53 1013.15 1013.73 1014.25 1014.71 1015.10 1015.42 1015.68 1015.89 1016.06 1016.19
1003.12 1002.42 1001.66 1000.87 1000.05 999.24 998.47 997.80 997.26 996.88 996.71 996.75 997.02 997.49 998.15 998.95 999.86 1000.84 1001.83 1002.81 1003.75 1004.63 1005.45 1006.21 1006.92 1007.60 1008.26 1008.91 1009.57 1010.24 1010.92 1011.59 1012.24 1012.87 1013.45 1013.97 1014.44 1014.83 1015.16 1015.42 1015.64 1015.81 1015.95
1002.61 1001.98 1001.29 1000.54 999.74 998.92 998.12 997.38 996.75 996.28 995.99 995.92 996.08 996.47 997.07 997.84 998.76 999.76 1000.81 1001.87 1002.90 1003.88 1004.80 1005.65 1006.45 1007.20 1007.91 1008.61 1009.30 1009.99 1010.67 1011.35 1012.00 1012.62 1013.19 1013.71 1014.16 1014.54 1014.87 1015.13 1015.34 1015.51 1015.64
1002.05 1001.48 1000.84 1000.13 999.34 998.52 997.68 996.88 996.18 995.60 995.21 995.04 995.11 995.42 995.96 996.70 997.61 998.64 999.75 1000.88 1002.00 1003.08 1004.11 1005.06 1005.96 1006.79 1007.58 1008.33 1009.07 1009.78 1010.48 1011.16 1011.81 1012.42 1012.98 1013.48 1013.92 1014.29 1014.60 1014.84 1015.04 1015.20 1015.32
1001.44 1000.92 1000.31 999.62 998.84 998.01 997.15 996.31 995.54 994.89 994.41 994.15 994.14 994.38 994.87 995.58 996.49 997.54 998.68 999.88 1001.09 1002.27 1003.40 1004.46 1005.46 1006.39 1007.26 1008.09 1008.87 1009.63 1010.35 1011.04 1011.69 1012.29 1012.84 1013.32 1013.73 1014.08 1014.36 1014.59 1014.77 1014.90 1015.00
1000.79 1000.29 999.72 999.04 998.28 997.45 996.57 995.71 994.90 994.20 993.67 993.34 993.27 993.46 993.90 994.59 995.48 996.55 997.73 998.98 1000.26 1001.52 1002.75 1003.91 1005.00 1006.02 1006.98 1007.87 1008.71 1009.51 1010.25 1010.96 1011.61 1012.20 1012.74 1013.20 1013.59 1013.92 1014.17 1014.37 1014.52 1014.63 1014.69
Thickness
5723 5719 5716 5712 5708 5705 5701 5699 5696 5694 5691 5688 5686 5682 5679 5677 5674 5672 5670 5668 5666 5665 5665 5665 5664 5665 5666 5666 5668 5669 5669 5670 5670 5674 5680 5686 5689 5692 5694 5697 5700 5701 5704
5724 5720 5716 5712 5708 5704 5701 5699 5697 5694 5692 5689 5686 5683 5679 5677 5674 5672 5669 5668 5666 5664 5664 5664 5663 5664 5664 5665 5665 5666 5667 5669 5669 5670 5675 5680 5683 5686 5689 5691 5694 5696 5698
5724 5719 5715 5711 5707 5704 5702 5699 5697 5694 5692 5689 5686 5682 5680 5677 5675 5672 5670 5669 5667 5666 5664 5664 5663 5663 5662 5663 5664 5664 5666 5668 5669 5669 5671 5675 5678 5681 5683 5686 5688 5690 5693
5723 5719 5715 5711 5708 5705 5702 5700 5697 5694 5691 5688 5686 5683 5680 5678 5675 5673 5671 5669 5667 5666 5666 5665 5664 5663 5663 5663 5663 5663 5664 5665 5666 5666 5667 5669 5672 5676 5677 5677 5679 5682 5685
5722 5718 5715 5712 5709 5705 5702 5699 5696 5694 5691 5688 5685 5683 5680 5678 5676 5674 5672 5669 5667 5666 5665 5665 5664 5664 5665 5664 5664 5663 5662 5662 5662 5662 5663 5664 5666 5668 5670 5672 5673 5675 5678
5722 5719 5716 5711 5708 5704 5701 5698 5695 5692 5690 5687 5684 5682 5680 5678 5677 5675 5673 5670 5667 5665 5664 5664 5664 5664 5664 5664 5664 5664 5663 5661 5660 5659 5660 5660 5662 5665 5666 5668 5668 5668 5669
5721 5718 5715 5711 5707 5704 5701 5697 5694 5691 5688 5685 5683 5681 5679 5678 5677 5676 5673 5670 5667 5665 5663 5662 5662 5663 5662 5661 5661 5662 5661 5662 5661 5659 5658 5658 5660 5662 5663 5663 5663 5663 5664
5720 5717 5714 5710 5706 5703 5699 5695 5692 5690 5686 5684 5681 5679 5678 5677 5677 5675 5673 5669 5666 5664 5663 5662 5660 5659 5660 5659 5657 5657 5656 5657 5658 5658 5657 5658 5659 5660 5660 5660 5659 5659 5660
5718 5715 5713 5709 5705 5700 5697 5694 5691 5688 5685 5682 5681 5678 5676 5675 5675 5674 5672 5667 5664 5662 5662 5661 5659 5658 5659 5658 5655 5653 5652 5653 5655 5655 5655 5655 5656 5657 5657 5655 5654 5652 5653
5717 5715 5713 5709 5704 5700 5697 5693 5690 5687 5684 5681 5679 5677 5675 5673 5673 5672 5670 5665 5661 5660 5658 5658 5658 5657 5657 5656 5652 5650 5648 5648 5649 5649 5649 5650 5650 5651 5651 5651 5650 5648 5647
5716 5713 5710 5707 5703 5700 5696 5692 5688 5685 5681 5678 5676 5674 5672 5671 5670 5669 5667 5663 5660 5657 5655 5654 5654 5655 5654 5653 5651 5648 5647 5646 5644 5643 5642 5642 5643 5643 5644 5645 5645 5644 5643
5710 5707 5705 5703 5701 5698 5692 5688 5685 5681 5677 5674 5671 5669 5668 5667 5666 5665 5664 5662 5659 5655 5652 5651 5650 5650 5649 5648 5647 5646 5645 5643 5640 5638 5636 5634 5634 5635 5636 5637 5638 5638 5639
5703 5701 5700 5698 5695 5693 5689 5684 5680 5677 5673 5670 5667 5665 5663 5662 5661 5661 5660 5658 5656 5652 5649 5648 5647 5645 5644 5642 5642 5641 5639 5636 5634 5631 5629 5628 5628 5628 5629 5629 5630 5630 5631
5696 5694 5693 5690 5687 5685 5683 5680 5676 5673 5669 5667 5664 5661 5659 5657 5656 5655 5654 5652 5650 5647 5644 5642 5641 5638 5636 5635 5634 5632 5631 5629 5627 5625 5622 5621 5621 5621 5620 5620 5620 5620 5620
5687 5686 5685 5684 5681 5678 5676 5674 5672 5671 5669 5666 5663 5660 5656 5653 5654 5653 5649 5647 5644 5641 5638 5634 5632 5629 5627 5625 5624 5623 5622 5621 5619 5617 5615 5614 5613 5612 5611 5611 5610 5609 5608
5677 5677 5676 5674 5672 5670 5667 5663 5663 5663 5663 5662 5660 5657 5655 5653 5651 5648 5645 5643 5640 5637 5632 5628 5625 5622 5620 5618 5616 5614 5612 5611 5610 5609 5607 5605 5604 5603 5601 5600 5599 5598 5596
5669 5669 5667 5666 5664 5661 5659 5657 5652 5651 5652 5652 5652 5650 5648 5646 5644 5641 5638 5636 5633 5630 5625 5621 5618 5616 5613 5611 5608 5606 5604 5602 5601 5599 5597 5595 5594 5593 5591 5589 5588 5586 5585
5660 5660 5659 5658 5656 5655 5653 5651 5649 5645 5641 5639 5641 5641 5640 5638 5635 5633 5629 5626 5621 5619 5617 5614 5611 5608 5605 5603 5600 5597 5595 5593 5591 5589 5587 5585 5584 5582 5580 5578 5576 5574 5573
5648 5649 5649 5649 5647 5646 5645 5643 5641 5638 5636 5632 5628 5629 5629 5627 5625 5623 5620 5617 5614 5610 5608 5605 5603 5600 5597 5594 5592 5589 5586 5583 5581 5579 5576 5574 5572 5570 5568 5566 5564 5563 5561
5636 5639 5639 5638 5637 5636 5635 5634 5631 5629 5627 5624 5622 5620 5617 5614 5612 5610 5609 5608 5606 5603 5600 5597 5594 5592 5589 5586 5582 5579 5576 5573 5570 5568 5565 5563 5561 5559 5557 5555 5553 5551 5549
5623 5625 5627 5626 5626 5626 5626 5625 5624 5621 5619 5617 5616 5614 5611 5609 5607 5604 5601 5599 5597 5595 5592 5588 5585 5582 5579 5576 5573 5570 5567 5563 5560 5558 5555 5552 5550 5547 5545 5543 5541 5539 5538
5609 5611 5613 5614 5616 5616 5616 5616 5615 5614 5612 5609 5606 5603 5601 5599 5597 5595 5593 5590 5588 5586 5584 5580 5576 5573 5570 5568 5564 5561 5557 5553 5550 5547 5544 5542 5539 5537 5534 5532 5530 5528 5526
5595 5597 5599 5602 5604 5605 5605 5605 5605 5604 5602 5600 5597 5593 5590 5588 5587 5585 5583 5581 5578 5576 5573 5570 5567 5563 5560 5558 5555 5552 5548 5544 5541 5538 5535 5531 5528 5526 5523 5521 5518 5516 5514
5582 5584 5586 5588 5591 5592 5593 5594 5594 5593 5592 5590 5587 5584 5581 5579 5578 5575 5573 5571 5568 5565 5563 5560 5557 5554 5550 5547 5544 5541 5538 5535 5532 5528 5525 5522 5518 5515 5512 5509 5507 5505 5502
5568 5570 5572 5575 5577 5579 5581 5582 5582 5581 5580 5579 5577 5574 5571 5568 5566 5564 5562 5559 5557 5554 5551 5549 5545 5542 5539 5536 5533 5530 5527 5524 5521 5518 5514 5511 5507 5504 5501 5498 5495 5493 5491
5554 5557 5559 5561 5564 5566 5568 5569 5569 5569 5568 5568 5566 5563 5560 5558 5556 5554 5551 5548 5546 5543 5540 5537 5534 5531 5528 5525 5522 5519 5516 5512 5509 5506 5503 5500 5496 5493 5490 5487 5485 5482 5480